Wind_Speed
21 21 21 21 19 19 18 18 17 17 18 17 16 15 14 15 16 16 16 16 15 14 14 14 14 15 15 15 15 15 16 15 14 14 14 14 15 15 15 15 16 16 17 18
22 22 22 22 22 21 19 19 19 19 18 18 19 17 17 18 18 17 17 17 17 16 16 17 18 17 17 17 17 17 17 17 17 16 16 16 17 17 18 19 19 19 19 20
24 23 23 23 22 23 22 22 21 21 21 20 19 20 20 20 20 20 20 20 19 18 18 18 20 19 18 19 19 19 19 18 18 18 18 18 19 19 20 21 21 21 21 22
25 25 25 23 24 24 24 23 23 23 23 22 22 22 23 23 23 24 23 22 23 22 21 21 22 23 23 23 22 22 21 20 20 20 20 21 22 22 22 22 22 22 23 23
26 26 25 24 24 25 25 25 25 24 24 24 22 23 24 26 26 26 26 25 25 24 23 24 25 25 25 23 23 23 23 22 22 22 22 22 22 22 22 23 23 24 24 25
27 27 26 24 24 24 25 26 26 25 24 24 24 24 25 25 26 27 27 26 25 25 24 25 26 27 26 24 24 24 25 25 24 24 24 24 24 23 24 24 24 25 25 26
27 28 27 26 24 25 26 26 25 25 25 25 26 26 27 28 27 28 27 27 27 26 27 27 27 26 26 26 26 26 26 26 26 26 26 26 25 25 25 25 25 25 26 27
29 29 28 27 27 26 26 26 27 27 27 27 27 27 28 28 29 29 29 29 29 29 30 30 30 29 28 28 28 28 28 28 28 28 27 26 26 25 25 26 26 26 26 26
29 29 29 29 28 27 27 27 27 28 29 30 30 29 29 29 30 30 31 30 31 31 31 31 31 30 30 30 30 31 31 30 30 30 29 27 27 27 27 27 28 28 27 27
27 28 29 29 29 29 28 29 29 29 30 30 30 31 31 31 31 31 32 32 32 32 31 32 32 32 32 32 33 33 34 33 31 30 30 29 29 30 29 29 29 29 29 29
28 28 28 29 28 28 29 31 31 31 31 31 32 32 33 33 33 33 33 33 32 32 33 31 32 32 32 33 33 33 33 32 31 31 31 31 31 31 30 30 30 30 30 30
30 30 30 30 30 29 29 30 31 31 32 33 33 34 34 34 34 34 34 34 33 33 33 33 32 32 32 32 32 31 31 32 32 32 32 32 31 31 31 31 31 31 32 32
30 31 31 31 30 30 30 29 30 30 31 31 32 32 33 33 33 33 33 34 34 34 33 33 33 32 32 32 31 31 31 32 32 32 32 31 31 31 31 31 32 33 34 34
32 32 31 31 31 31 31 31 31 29 29 30 30 31 31 31 31 31 32 32 33 34 34 35 34 33 33 32 32 32 32 32 32 32 32 32 32 32 32 33 33 34 35 36
33 32 32 31 31 31 31 31 30 29 30 31 31 32 31 31 31 31 31 32 33 34 35 35 34 33 33 32 32 31 31 32 32 32 32 33 33 33 34 34 35 35 36 36
32 32 31 31 31 31 31 31 30 30 30 31 31 31 31 31 31 31 31 32 33 33 33 33 33 33 33 33 33 32 32 32 32 33 33 33 34 34 35 35 36 36 37 37
30 30 30 30 31 31 31 30 30 30 30 30 30 30 30 31 31 30 31 32 32 32 32 32 32 33 33 34 33 34 34 33 33 33 33 34 35 36 36 37 37 38 38 39
29 29 30 30 30 30 30 30 30 30 30 30 31 31 31 30 30 30 31 32 31 31 31 31 32 32 33 33 33 33 34 34 34 34 34 35 36 37 37 38 38 39 39 39
28 28 28 28 29 29 30 30 30 29 29 29 29 30 30 30 30 30 30 29 29 29 29 29 30 31 32 33 33 33 33 34 34 35 36 36 37 38 39 39 40 40 40 40
26 26 27 27 27 27 27 28 27 27 28 28 27 27 28 28 29 29 29 29 28 28 28 28 29 30 31 30 31 32 34 34 34 35 37 37 37 37 38 39 39 40 40 40
25 25 26 25 25 25 26 25 25 26 26 26 27 27 27 28 28 28 28 28 28 28 28 28 28 28 29 29 30 31 31 32 33 35 36 36 37 37 38 39 39 39 39 39
23 23 24 24 24 25 25 25 25 25 25 26 27 27 27 27 27 27 27 28 28 27 27 26 26 27 27 27 28 29 30 30 31 32 33 34 35 36 36 36 36 37 38 38
22 21 22 23 23 24 25 25 25 25 25 26 26 26 26 26 27 27 27 27 27 27 26 25 26 26 27 27 27 28 29 30 30 31 32 32 33 33 34 34 34 35 35 36
20 20 21 21 22 23 23 24 24 24 24 25 26 25 25 25 25 25 26 26 27 27 27 27 27 27 28 28 28 28 29 30 30 31 31 31 31 32 32 32 33 34 34 35
19 19 19 20 21 22 22 23 23 24 24 24 24 24 24 24 24 24 24 25 26 26 26 26 27 27 28 28 28 29 29 30 30 30 30 30 31 32 32 33 33 33 33 34
19 19 19 20 21 21 21 21 22 23 23 23 23 23 23 24 23 24 24 25 25 26 26 26 27 27 27 28 29 29 29 29 29 29 29 30 30 31 32 33 33 33 33 32
18 18 19 19 19 20 20 21 21 22 22 22 22 22 22 23 23 24 24 25 25 25 25 26 26 27 28 29 29 28 28 28 28 28 29 29 30 30 31 32 32 32 31 31
Wind_Direction
236 239 237 238 239 236 238 243 247 257 263 264 267 270 276 279 283 288 291 294 295 296 299 300 301 304 305 308 307 308 309 307 305 301 297 295 291 288 285 284 283 281 281 284
238 241 243 242 243 241 243 246 246 252 257 262 263 265 273 278 281 285 287 290 293 296 296 298 301 301 304 308 309 308 308 306 305 301 297 291 287 288 286 282 281 280 280 281
243 243 246 246 245 247 249 251 251 252 258 259 262 267 273 277 280 280 280 284 288 291 289 292 295 298 300 303 304 303 303 302 302 301 299 295 289 285 284 282 280 281 281 281
246 248 249 248 247 248 251 251 253 256 258 260 264 268 270 274 278 279 279 282 284 286 286 288 290 293 294 296 297 298 299 298 299 298 297 296 294 291 286 282 280 281 280 280
245 248 249 247 247 250 252 252 254 256 258 259 264 266 269 272 275 278 280 283 283 283 286 289 289 289 290 289 289 291 293 293 295 295 295 296 294 291 287 284 281 281 280 280
246 248 247 248 249 250 252 252 254 258 260 260 265 266 271 276 278 280 283 281 282 280 282 287 287 284 284 283 284 286 289 290 290 292 293 293 292 289 286 284 282 281 281 282
245 246 248 249 251 251 252 255 257 259 261 264 267 268 272 273 276 280 284 284 281 280 280 283 285 284 281 281 281 283 286 288 288 289 289 291 291 289 287 285 284 283 284 285
243 246 247 250 253 254 255 257 259 261 263 265 268 269 270 272 275 279 283 283 283 283 282 281 281 280 279 280 280 282 284 285 286 286 286 287 288 287 287 286 286 286 285 286
246 249 250 253 256 256 259 262 263 263 264 267 270 272 272 273 275 277 280 281 282 283 284 281 279 279 280 280 281 282 282 283 284 284 285 285 286 286 286 286 286 286 285 285
250 251 251 254 257 259 261 263 264 266 268 269 271 271 273 275 276 277 278 280 282 282 282 282 279 278 279 280 281 282 281 281 282 283 283 284 286 287 286 286 285 285 285 285
252 254 254 254 257 260 263 264 265 266 268 271 271 271 273 275 275 277 280 281 282 282 284 281 281 281 279 279 280 280 281 279 279 280 282 282 284 285 285 285 285 286 286 285
253 256 257 259 261 263 265 266 268 270 269 269 271 274 275 275 275 277 280 281 281 281 282 283 284 283 280 279 279 279 280 279 279 280 281 281 281 282 284 285 286 286 286 286
252 254 257 260 262 264 266 269 270 269 269 270 273 276 277 277 277 279 280 280 281 282 282 283 284 284 282 281 280 280 280 280 279 278 279 280 282 283 284 285 286 287 287 287
252 255 258 260 261 265 268 271 273 274 273 273 274 276 277 278 278 279 280 281 282 282 283 283 282 282 281 280 278 278 278 278 278 277 278 280 281 281 282 283 285 286 287 287
252 254 258 260 261 264 269 272 273 274 276 276 276 277 278 278 278 278 280 281 281 282 282 281 281 280 279 277 276 277 276 275 275 275 278 280 281 281 282 283 284 286 286 287
254 256 258 260 262 265 269 271 273 274 276 276 278 279 279 278 277 278 280 281 282 282 282 281 281 280 280 279 277 276 276 274 275 276 278 280 282 283 283 284 285 286 286 287
253 255 259 261 264 266 267 270 271 273 274 276 278 278 278 279 279 279 279 282 282 282 281 280 280 281 281 280 278 276 276 276 276 277 278 280 282 283 284 285 285 286 286 287
253 256 259 261 264 267 269 272 275 275 275 277 278 279 280 280 280 279 281 282 281 281 282 282 283 283 282 282 281 279 278 278 278 278 280 281 282 283 285 286 286 287 287 288
254 257 260 262 265 269 271 273 273 274 277 279 280 280 282 283 283 282 284 285 285 286 287 287 287 285 283 283 281 281 281 280 279 279 280 281 282 282 283 284 285 286 287 288
254 256 259 262 265 269 271 272 271 275 278 279 280 281 283 284 285 285 286 287 287 288 288 288 288 288 289 288 284 283 283 282 281 281 282 283 283 284 284 285 286 287 288 289
257 259 260 261 264 268 270 271 273 275 277 278 280 282 283 284 284 285 286 287 287 288 289 290 289 290 291 291 290 288 288 287 285 284 284 285 285 285 285 286 287 288 289 290
258 261 262 263 267 270 273 274 274 275 275 278 280 282 282 283 284 285 286 288 288 288 290 291 291 292 294 294 293 292 290 290 290 291 291 290 289 288 288 288 288 289 289 289
257 261 265 266 268 272 275 277 276 276 277 278 280 282 283 284 285 286 287 288 289 289 290 291 293 294 296 297 297 297 296 294 294 294 295 295 295 293 291 290 290 291 291 291
258 263 267 270 271 273 275 276 277 279 280 280 282 283 284 285 287 287 288 288 288 288 288 290 293 295 296 297 298 300 300 300 299 298 297 297 297 296 296 294 294 294 294 294
258 263 268 272 274 276 276 277 278 280 281 282 282 282 283 285 288 289 290 289 290 290 290 292 294 296 297 297 299 300 301 301 300 299 299 299 299 299 298 298 298 297 297 297
262 265 270 274 277 278 279 280 281 281 281 281 281 282 283 285 286 289 291 292 292 292 292 293 294 295 297 299 300 301 302 302 302 302 301 301 301 300 301 301 300 299 299 299
264 268 273 276 277 278 280 282 282 283 283 283 282 282 283 284 286 288 291 292 292 293 294 294 295 296 298 300 301 302 303 303 304 304 304 304 303 303 302 303 303 302 300 300
Height
5890 5891 5892 5894 5894 5896 5897 5898 5899 5899 5899 5900 5900 5900 5900 5900 5900 5899 5899 5898 5897 5896 5895 5894 5894 5892 5891 5889 5887 5885 5884 5883 5881 5880 5879 5877 5876 5875 5874 5872 5871 5870 5869 5867
5886 5887 5888 5889 5890 5891 5892 5893 5894 5894 5895 5895 5895 5895 5895 5895 5895 5895 5895 5894 5892 5891 5890 5889 5888 5887 5886 5885 5883 5881 5879 5878 5876 5875 5873 5872 5871 5870 5868 5867 5866 5865 5863 5862
5880 5882 5883 5884 5886 5887 5888 5889 5890 5889 5891 5890 5890 5891 5891 5891 5891 5891 5890 5889 5887 5886 5885 5884 5883 5882 5880 5879 5878 5876 5875 5873 5871 5870 5868 5867 5865 5864 5863 5861 5860 5859 5857 5856
5874 5876 5877 5881 5880 5881 5882 5883 5884 5885 5885 5885 5886 5886 5886 5886 5885 5885 5884 5883 5882 5880 5879 5879 5877 5876 5875 5874 5872 5871 5869 5867 5866 5864 5863 5861 5859 5857 5856 5855 5854 5852 5851 5850
5868 5869 5871 5873 5874 5875 5876 5877 5878 5880 5880 5880 5880 5881 5880 5879 5879 5879 5878 5877 5875 5874 5874 5873 5871 5870 5869 5867 5866 5865 5863 5861 5860 5858 5856 5854 5853 5851 5849 5848 5847 5846 5844 5843
5861 5863 5864 5867 5868 5868 5870 5871 5872 5873 5874 5874 5875 5875 5875 5873 5873 5873 5871 5870 5868 5868 5867 5866 5864 5862 5861 5860 5859 5858 5856 5855 5853 5851 5850 5848 5846 5844 5842 5841 5840 5838 5837 5835
5854 5856 5858 5860 5862 5863 5865 5866 5867 5867 5868 5869 5869 5869 5869 5867 5866 5865 5864 5863 5862 5861 5859 5858 5856 5854 5854 5853 5852 5850 5849 5847 5846 5844 5842 5841 5839 5837 5835 5833 5832 5830 5829 5828
5848 5849 5853 5854 5856 5858 5858 5859 5860 5861 5862 5862 5862 5862 5861 5860 5859 5858 5856 5855 5854 5853 5851 5850 5848 5847 5846 5845 5844 5843 5841 5840 5839 5837 5835 5834 5832 5830 5828 5826 5824 5823 5821 5820
5842 5845 5846 5847 5849 5850 5851 5852 5853 5854 5854 5854 5854 5854 5853 5852 5851 5850 5849 5848 5846 5845 5843 5841 5839 5838 5837 5836 5835 5834 5833 5832 5830 5829 5827 5826 5824 5822 5820 5819 5817 5815 5813 5812
5834 5836 5837 5839 5841 5843 5844 5845 5846 5846 5846 5846 5846 5845 5844 5844 5843 5842 5840 5839 5838 5836 5834 5833 5831 5830 5828 5827 5825 5824 5824 5823 5821 5820 5818 5817 5816 5814 5812 5811 5809 5807 5805 5803
5827 5829 5830 5831 5833 5834 5836 5836 5837 5837 5837 5837 5837 5836 5836 5835 5834 5833 5832 5830 5829 5827 5825 5823 5822 5821 5819 5818 5816 5815 5814 5813 5812 5810 5809 5808 5807 5805 5804 5802 5800 5798 5796 5794
5820 5822 5823 5825 5825 5827 5828 5828 5829 5829 5829 5828 5827 5826 5826 5825 5824 5824 5822 5821 5820 5818 5817 5814 5813 5811 5810 5808 5807 5805 5804 5804 5803 5802 5800 5799 5797 5796 5795 5793 5791 5789 5787 5785
5813 5815 5816 5817 5818 5819 5819 5819 5820 5820 5820 5820 5819 5817 5816 5815 5814 5814 5813 5811 5810 5808 5807 5805 5804 5802 5801 5798 5797 5796 5795 5794 5793 5792 5791 5789 5788 5787 5786 5784 5782 5779 5777 5775
5805 5807 5808 5809 5810 5811 5811 5811 5811 5811 5811 5810 5810 5809 5807 5806 5805 5804 5803 5802 5800 5798 5797 5795 5794 5792 5790 5789 5788 5787 5785 5784 5783 5782 5781 5780 5778 5777 5776 5774 5772 5770 5767 5765
5797 5799 5800 5801 5802 5803 5803 5803 5803 5803 5803 5802 5800 5799 5798 5797 5796 5795 5793 5792 5790 5788 5787 5785 5783 5782 5781 5779 5778 5777 5775 5774 5773 5773 5771 5770 5768 5767 5765 5763 5761 5759 5757 5755
5789 5790 5792 5793 5794 5795 5795 5795 5795 5794 5793 5792 5791 5789 5788 5787 5786 5785 5784 5782 5780 5778 5776 5775 5774 5772 5771 5770 5768 5767 5766 5764 5763 5763 5761 5760 5758 5756 5754 5752 5750 5748 5746 5744
5781 5783 5784 5785 5786 5786 5786 5786 5786 5785 5784 5783 5782 5781 5780 5778 5777 5775 5774 5772 5770 5768 5767 5765 5764 5763 5761 5759 5758 5757 5756 5754 5753 5752 5751 5749 5747 5745 5743 5741 5739 5737 5735 5732
5774 5775 5776 5776 5777 5777 5777 5778 5777 5776 5775 5774 5773 5772 5770 5769 5767 5766 5764 5762 5760 5758 5757 5756 5754 5753 5751 5749 5747 5746 5745 5743 5742 5741 5739 5738 5736 5734 5731 5729 5727 5725 5722 5720
5765 5767 5767 5768 5769 5769 5769 5769 5768 5767 5766 5765 5764 5763 5761 5760 5758 5757 5755 5753 5751 5750 5748 5746 5744 5743 5741 5739 5737 5735 5734 5732 5731 5730 5728 5726 5724 5722 5720 5718 5716 5713 5711 5708
5758 5759 5760 5761 5761 5761 5761 5760 5759 5758 5758 5757 5755 5754 5753 5752 5750 5749 5747 5745 5743 5742 5740 5738 5735 5733 5731 5729 5727 5725 5723 5722 5721 5719 5717 5715 5712 5710 5708 5706 5703 5701 5698 5695
5750 5751 5752 5753 5753 5753 5752 5752 5751 5750 5749 5748 5747 5746 5745 5744 5742 5740 5738 5737 5735 5733 5731 5729 5727 5724 5722 5719 5717 5715 5714 5712 5710 5708 5706 5703 5701 5699 5696 5694 5691 5689 5686 5683
5743 5744 5744 5745 5745 5745 5744 5744 5743 5742 5742 5740 5739 5738 5737 5735 5734 5732 5730 5729 5727 5725 5723 5720 5718 5716 5714 5711 5709 5707 5705 5702 5700 5697 5695 5692 5690 5687 5685 5682 5680 5677 5674 5671
5736 5736 5737 5737 5737 5737 5737 5736 5735 5735 5734 5733 5731 5730 5729 5727 5725 5724 5722 5720 5718 5716 5715 5713 5711 5708 5706 5703 5701 5698 5696 5693 5690 5688 5685 5682 5679 5677 5674 5671 5669 5666 5663 5660
5729 5730 5730 5730 5730 5730 5729 5728 5728 5727 5726 5725 5723 5722 5720 5719 5717 5716 5714 5712 5710 5708 5706 5705 5702 5700 5698 5695 5692 5690 5687 5684 5681 5678 5675 5672 5669 5666 5663 5661 5658 5655 5652 5649
5723 5723 5723 5723 5723 5723 5722 5721 5720 5719 5718 5717 5715 5714 5713 5711 5710 5708 5706 5704 5702 5700 5698 5696 5694 5692 5689 5686 5684 5681 5678 5675 5672 5669 5666 5662 5659 5656 5653 5650 5647 5644 5641 5638
5716 5717 5717 5716 5716 5715 5715 5714 5713 5712 5710 5709 5708 5707 5705 5704 5703 5701 5699 5697 5695 5693 5690 5688 5686 5684 5681 5678 5675 5672 5669 5666 5663 5659 5656 5653 5650 5647 5643 5640 5637 5634 5631 5628
5710 5710 5710 5710 5709 5708 5708 5707 5706 5704 5703 5702 5701 5699 5698 5697 5695 5693 5692 5689 5687 5685 5683 5681 5678 5676 5673 5670 5667 5664 5661 5658 5654 5651 5648 5645 5641 5638 5634 5631 5627 5624 5621 5618